Year,Month,Day,Hour,Minute,Value (Times are PST for temperature in C)
2016,05,31,00,00,12.70
2016,05,31,00,01,12.70
2016,05,31,00,02,12.70
2016,05,31,00,03,12.60
2016,05,31,00,04,12.60
2016,05,31,00,05,12.60
2016,05,31,00,06,12.50
2016,05,31,00,07,12.50
2016,05,31,00,08,12.50
2016,05,31,00,09,12.50
2016,05,31,00,10,12.50
2016,05,31,00,11,12.50
2016,05,31,00,12,12.50
2016,05,31,00,13,12.60
2016,05,31,00,14,12.60
2016,05,31,00,15,12.60
2016,05,31,00,16,12.60
2016,05,31,00,17,12.60
2016,05,31,00,18,12.60
2016,05,31,00,19,12.60
2016,05,31,00,20,12.60
2016,05,31,00,21,12.60
2016,05,31,00,22,12.60
2016,05,31,00,23,12.60
2016,05,31,00,24,12.60
2016,05,31,00,25,12.60
2016,05,31,00,26,12.60
2016,05,31,00,27,12.60
2016,05,31,00,28,12.60
2016,05,31,00,29,12.60
2016,05,31,00,30,12.50
2016,05,31,00,31,12.50
2016,05,31,00,32,12.50
2016,05,31,00,33,12.40
2016,05,31,00,34,12.40
2016,05,31,00,35,12.40
2016,05,31,00,36,12.40
2016,05,31,00,37,12.30
2016,05,31,00,38,12.30
2016,05,31,00,39,12.30
2016,05,31,00,40,12.30
2016,05,31,00,41,12.30
2016,05,31,00,42,12.30
2016,05,31,00,43,12.30
2016,05,31,00,44,12.20
2016,05,31,00,45,12.20
2016,05,31,00,46,12.20
2016,05,31,00,47,12.20
2016,05,31,00,48,12.20
2016,05,31,00,49,12.10
2016,05,31,00,50,12.00
2016,05,31,00,51,12.00
2016,05,31,00,52,11.90
2016,05,31,00,53,11.90
2016,05,31,00,54,11.90
2016,05,31,00,55,11.90
2016,05,31,00,56,11.90
2016,05,31,00,57,11.80
2016,05,31,00,58,11.80
2016,05,31,00,59,11.80
2016,05,31,01,00,11.90
2016,05,31,01,01,11.90
2016,05,31,01,02,11.90
2016,05,31,01,03,11.90
2016,05,31,01,04,11.90
2016,05,31,01,05,11.90
2016,05,31,01,06,11.90
2016,05,31,01,07,11.90
2016,05,31,01,08,11.90
2016,05,31,01,09,11.80
2016,05,31,01,10,11.80
2016,05,31,01,11,11.80
2016,05,31,01,12,11.80
2016,05,31,01,13,11.80
2016,05,31,01,14,11.70
2016,05,31,01,15,11.70
2016,05,31,01,16,11.70
2016,05,31,01,17,11.70
2016,05,31,01,18,11.70
2016,05,31,01,19,11.70
2016,05,31,01,20,11.70
2016,05,31,01,21,11.70
2016,05,31,01,22,11.80
2016,05,31,01,23,11.80
2016,05,31,01,24,11.80
2016,05,31,01,25,11.80
2016,05,31,01,26,11.80
2016,05,31,01,27,11.80
2016,05,31,01,28,11.70
2016,05,31,01,29,11.70
2016,05,31,01,30,11.70
2016,05,31,01,31,11.70
2016,05,31,01,32,11.70
2016,05,31,01,33,11.70
2016,05,31,01,34,11.70
2016,05,31,01,35,11.70
2016,05,31,01,36,11.70
2016,05,31,01,37,11.70
2016,05,31,01,38,11.70
2016,05,31,01,39,11.70
2016,05,31,01,40,11.70
2016,05,31,01,41,11.70
2016,05,31,01,42,11.70
2016,05,31,01,43,11.70
2016,05,31,01,44,11.70
2016,05,31,01,45,11.60
2016,05,31,01,46,11.60
2016,05,31,01,47,11.60
2016,05,31,01,48,11.60
2016,05,31,01,49,11.60
2016,05,31,01,50,11.60
2016,05,31,01,51,11.60
2016,05,31,01,52,11.60
2016,05,31,01,53,11.60
2016,05,31,01,54,11.60
2016,05,31,01,55,11.60
2016,05,31,01,56,11.60
2016,05,31,01,57,11.60
2016,05,31,01,58,11.60
2016,05,31,01,59,11.50
2016,05,31,02,00,11.60
2016,05,31,02,01,11.60
2016,05,31,02,02,11.60
2016,05,31,02,03,11.60
2016,05,31,02,04,11.60
2016,05,31,02,05,11.50
2016,05,31,02,06,11.60
2016,05,31,02,07,11.60
2016,05,31,02,08,11.50
2016,05,31,02,09,11.50
2016,05,31,02,10,11.50
2016,05,31,02,11,11.40
2016,05,31,02,12,11.40
2016,05,31,02,13,11.40
2016,05,31,02,14,11.40
2016,05,31,02,15,11.40
2016,05,31,02,16,11.40
2016,05,31,02,17,11.30
2016,05,31,02,18,11.30
2016,05,31,02,19,11.30
2016,05,31,02,20,11.40
2016,05,31,02,21,11.40
2016,05,31,02,22,11.40
2016,05,31,02,23,11.40
2016,05,31,02,24,11.40
2016,05,31,02,25,11.30
2016,05,31,02,26,11.30
2016,05,31,02,27,11.30
2016,05,31,02,28,11.30
2016,05,31,02,29,11.20
2016,05,31,02,30,11.20
2016,05,31,02,31,11.20
2016,05,31,02,32,11.20
2016,05,31,02,33,11.10
2016,05,31,02,34,11.10
2016,05,31,02,35,11.10
2016,05,31,02,36,11.10
2016,05,31,02,37,11.00
2016,05,31,02,38,11.00
2016,05,31,02,39,11.00
2016,05,31,02,40,11.00
2016,05,31,02,41,11.00
2016,05,31,02,42,10.90
2016,05,31,02,43,10.90
2016,05,31,02,44,10.90
2016,05,31,02,45,10.90
2016,05,31,02,46,10.90
2016,05,31,02,47,10.90
2016,05,31,02,48,10.90
2016,05,31,02,49,11.00
2016,05,31,02,50,11.10
2016,05,31,02,51,11.20
2016,05,31,02,52,11.30
2016,05,31,02,53,11.30
2016,05,31,02,54,11.30
2016,05,31,02,55,11.30
2016,05,31,02,56,11.30
2016,05,31,02,57,11.30
2016,05,31,02,58,11.30
2016,05,31,02,59,11.30
2016,05,31,03,00,11.30
2016,05,31,03,01,11.30
2016,05,31,03,02,11.30
2016,05,31,03,03,11.30
2016,05,31,03,04,11.30
2016,05,31,03,05,11.20
2016,05,31,03,06,11.20
2016,05,31,03,07,11.20
2016,05,31,03,08,11.20
2016,05,31,03,09,11.20
2016,05,31,03,10,11.20
2016,05,31,03,11,11.20
2016,05,31,03,12,11.20
2016,05,31,03,13,11.20
2016,05,31,03,14,11.10
2016,05,31,03,15,11.10
2016,05,31,03,16,11.10
2016,05,31,03,17,11.10
2016,05,31,03,18,11.10
2016,05,31,03,19,11.00
2016,05,31,03,20,11.00
2016,05,31,03,21,11.00
2016,05,31,03,22,10.90
2016,05,31,03,23,10.90
2016,05,31,03,24,10.90
2016,05,31,03,25,10.90
2016,05,31,03,26,10.90
2016,05,31,03,27,10.80
2016,05,31,03,28,10.80
2016,05,31,03,29,10.80
2016,05,31,03,30,10.80
2016,05,31,03,31,10.80
2016,05,31,03,32,10.80
2016,05,31,03,33,10.80
2016,05,31,03,34,10.70
2016,05,31,03,35,10.70
2016,05,31,03,36,10.70
2016,05,31,03,37,10.70
2016,05,31,03,38,10.70
2016,05,31,03,39,10.70
2016,05,31,03,40,10.70
2016,05,31,03,41,10.70
2016,05,31,03,42,10.70
2016,05,31,03,43,10.60
2016,05,31,03,44,10.60
2016,05,31,03,45,10.60
2016,05,31,03,46,10.60
2016,05,31,03,47,10.60
2016,05,31,03,48,10.60
2016,05,31,03,49,10.60
2016,05,31,03,50,10.50
2016,05,31,03,51,10.50
2016,05,31,03,52,10.50
2016,05,31,03,53,10.40
2016,05,31,03,54,10.40
2016,05,31,03,55,10.40
2016,05,31,03,56,10.30
2016,05,31,03,57,10.30
2016,05,31,03,58,10.30
2016,05,31,03,59,10.20
2016,05,31,04,00,10.10
2016,05,31,04,01,10.00
2016,05,31,04,02,10.00
2016,05,31,04,03,9.90
2016,05,31,04,04,9.90
2016,05,31,04,05,9.80
2016,05,31,04,06,9.80
2016,05,31,04,07,9.80
2016,05,31,04,08,9.70
2016,05,31,04,09,9.70
2016,05,31,04,10,9.70
2016,05,31,04,11,9.60
2016,05,31,04,12,9.60
2016,05,31,04,13,9.60
2016,05,31,04,14,9.60
2016,05,31,04,15,9.60
2016,05,31,04,16,9.60
2016,05,31,04,17,9.60
2016,05,31,04,18,9.50
2016,05,31,04,19,9.50
2016,05,31,04,20,9.40
2016,05,31,04,21,9.40
2016,05,31,04,22,9.40
2016,05,31,04,23,9.40
2016,05,31,04,24,9.40
2016,05,31,04,25,9.40
2016,05,31,04,26,9.30
2016,05,31,04,27,9.30
2016,05,31,04,28,9.30
2016,05,31,04,29,9.40
2016,05,31,04,30,9.40
2016,05,31,04,31,9.40
2016,05,31,04,32,9.40
2016,05,31,04,33,9.40
2016,05,31,04,34,9.40
2016,05,31,04,35,9.40
2016,05,31,04,36,9.40
2016,05,31,04,37,9.50
2016,05,31,04,38,9.50
2016,05,31,04,39,9.50
2016,05,31,04,40,9.50
2016,05,31,04,41,9.50
2016,05,31,04,42,9.50
2016,05,31,04,43,9.50
2016,05,31,04,44,9.50
2016,05,31,04,45,9.60
2016,05,31,04,46,9.60
2016,05,31,04,47,9.60
2016,05,31,04,48,9.60
2016,05,31,04,49,9.60
2016,05,31,04,50,9.60
2016,05,31,04,51,9.60
2016,05,31,04,52,9.70
2016,05,31,04,53,9.70
2016,05,31,04,54,9.70
2016,05,31,04,55,9.60
2016,05,31,04,56,9.60
2016,05,31,04,57,9.60
2016,05,31,04,58,9.60
2016,05,31,04,59,9.60
2016,05,31,05,00,9.60
2016,05,31,05,01,9.60
2016,05,31,05,02,9.70
2016,05,31,05,03,9.70
2016,05,31,05,04,9.70
2016,05,31,05,05,9.70
2016,05,31,05,06,9.70
2016,05,31,05,07,9.70
2016,05,31,05,08,9.70
2016,05,31,05,09,9.70
2016,05,31,05,10,9.70
2016,05,31,05,11,9.70
2016,05,31,05,12,9.70
2016,05,31,05,13,9.60
2016,05,31,05,14,9.60
2016,05,31,05,15,9.60
2016,05,31,05,16,9.70
2016,05,31,05,17,9.70
2016,05,31,05,18,9.70
2016,05,31,05,19,9.70
2016,05,31,05,20,9.70
2016,05,31,05,21,9.60
2016,05,31,05,22,9.60
2016,05,31,05,23,9.60
2016,05,31,05,24,9.60
2016,05,31,05,25,9.60
2016,05,31,05,26,9.60
2016,05,31,05,27,9.60
2016,05,31,05,28,9.60
2016,05,31,05,29,9.60
2016,05,31,05,30,9.60
2016,05,31,05,31,9.60
2016,05,31,05,32,9.60
2016,05,31,05,33,9.60
2016,05,31,05,34,9.60
2016,05,31,05,35,9.60
2016,05,31,05,36,9.60
2016,05,31,05,37,9.60
2016,05,31,05,38,9.60
2016,05,31,05,39,9.60
2016,05,31,05,40,9.60
2016,05,31,05,41,9.60
2016,05,31,05,42,9.60
2016,05,31,05,43,9.60
2016,05,31,05,44,9.60
2016,05,31,05,45,9.60
2016,05,31,05,46,9.60
2016,05,31,05,47,9.60
2016,05,31,05,48,9.60
2016,05,31,05,49,9.60
2016,05,31,05,50,9.60
2016,05,31,05,51,9.60
2016,05,31,05,52,9.60
2016,05,31,05,53,9.60
2016,05,31,05,54,9.60
2016,05,31,05,55,9.60
2016,05,31,05,56,9.60
2016,05,31,05,57,9.60
2016,05,31,05,58,9.60
2016,05,31,05,59,9.60
2016,05,31,06,00,9.60
2016,05,31,06,01,9.60
2016,05,31,06,02,9.60
2016,05,31,06,03,9.60
2016,05,31,06,04,9.60
2016,05,31,06,05,9.60
2016,05,31,06,06,9.60
2016,05,31,06,07,9.60
2016,05,31,06,08,9.60
2016,05,31,06,09,9.60
2016,05,31,06,10,9.60
2016,05,31,06,11,9.60
2016,05,31,06,12,9.60
2016,05,31,06,13,9.70
2016,05,31,06,14,9.70
2016,05,31,06,15,9.70
2016,05,31,06,16,9.70
2016,05,31,06,17,9.70
2016,05,31,06,18,9.80
2016,05,31,06,19,9.80
2016,05,31,06,20,9.80
2016,05,31,06,21,9.80
2016,05,31,06,22,9.90
2016,05,31,06,23,9.90
2016,05,31,06,24,9.90
2016,05,31,06,25,10.00
2016,05,31,06,26,10.00
2016,05,31,06,27,10.10
2016,05,31,06,28,10.10
2016,05,31,06,29,10.10
2016,05,31,06,30,10.10
2016,05,31,06,31,10.20
2016,05,31,06,32,10.20
2016,05,31,06,33,10.20
2016,05,31,06,34,10.20
2016,05,31,06,35,10.20
2016,05,31,06,36,10.30
2016,05,31,06,37,10.30
2016,05,31,06,38,10.30
2016,05,31,06,39,10.40
2016,05,31,06,40,10.40
2016,05,31,06,41,10.40
2016,05,31,06,42,10.50
2016,05,31,06,43,10.50
2016,05,31,06,44,10.50
2016,05,31,06,45,10.60
2016,05,31,06,46,10.60
2016,05,31,06,47,10.60
2016,05,31,06,48,10.60
2016,05,31,06,49,10.70
2016,05,31,06,50,10.70
2016,05,31,06,51,10.70
2016,05,31,06,52,10.80
2016,05,31,06,53,10.80
2016,05,31,06,54,10.80
2016,05,31,06,55,10.80
2016,05,31,06,56,10.80
2016,05,31,06,57,10.80
2016,05,31,06,58,10.80
2016,05,31,06,59,10.90
2016,05,31,07,00,10.90
2016,05,31,07,01,10.90
2016,05,31,07,02,11.00
2016,05,31,07,03,11.00
2016,05,31,07,04,11.00
2016,05,31,07,05,11.10
2016,05,31,07,06,11.10
2016,05,31,07,07,11.10
2016,05,31,07,08,11.10
2016,05,31,07,09,11.10
2016,05,31,07,10,11.20
2016,05,31,07,11,11.20
2016,05,31,07,12,11.20
2016,05,31,07,13,11.20
2016,05,31,07,14,11.20
2016,05,31,07,15,11.30
2016,05,31,07,16,11.30
2016,05,31,07,17,11.30
2016,05,31,07,18,11.40
2016,05,31,07,19,11.40
2016,05,31,07,20,11.50
2016,05,31,07,21,11.50
2016,05,31,07,22,11.60
2016,05,31,07,23,11.60
2016,05,31,07,24,11.60
2016,05,31,07,25,11.70
2016,05,31,07,26,11.70
2016,05,31,07,27,11.70
2016,05,31,07,28,11.80
2016,05,31,07,29,11.80
2016,05,31,07,30,11.80
2016,05,31,07,31,11.90
2016,05,31,07,32,11.90
2016,05,31,07,33,12.00
2016,05,31,07,34,12.10
2016,05,31,07,35,12.10
2016,05,31,07,36,12.20
2016,05,31,07,37,12.20
2016,05,31,07,38,12.30
2016,05,31,07,39,12.30
2016,05,31,07,40,12.30
2016,05,31,07,41,12.40
2016,05,31,07,42,12.40
2016,05,31,07,43,12.50
2016,05,31,07,44,12.50
2016,05,31,07,45,12.60
2016,05,31,07,46,12.60
2016,05,31,07,47,12.70
2016,05,31,07,48,12.80
2016,05,31,07,49,12.80
2016,05,31,07,50,12.90
2016,05,31,07,51,12.90
2016,05,31,07,52,13.00
2016,05,31,07,53,13.00
2016,05,31,07,54,13.10
2016,05,31,07,55,13.10
2016,05,31,07,56,13.20
2016,05,31,07,57,13.20
2016,05,31,07,58,13.30
2016,05,31,07,59,13.40
2016,05,31,08,00,13.40
2016,05,31,08,01,13.50
2016,05,31,08,02,13.60
2016,05,31,08,03,13.60
2016,05,31,08,04,13.70
2016,05,31,08,05,13.80
2016,05,31,08,06,13.80
2016,05,31,08,07,14.00
2016,05,31,08,08,14.10
2016,05,31,08,09,14.20
2016,05,31,08,10,14.30
2016,05,31,08,11,14.30
2016,05,31,08,12,14.40
2016,05,31,08,13,14.50
2016,05,31,08,14,14.50
2016,05,31,08,15,14.60
2016,05,31,08,16,14.70
2016,05,31,08,17,14.80
2016,05,31,08,18,14.80
2016,05,31,08,19,14.90
2016,05,31,08,20,15.00
2016,05,31,08,21,15.00
2016,05,31,08,22,15.00
2016,05,31,08,23,15.00
2016,05,31,08,24,15.00
2016,05,31,08,25,15.00
2016,05,31,08,26,15.00
2016,05,31,08,27,15.00
2016,05,31,08,28,15.10
2016,05,31,08,29,15.20
2016,05,31,08,30,15.20
2016,05,31,08,31,15.30
2016,05,31,08,32,15.30
2016,05,31,08,33,15.40
2016,05,31,08,34,15.40
2016,05,31,08,35,15.50
2016,05,31,08,36,15.50
2016,05,31,08,37,15.60
2016,05,31,08,38,15.70
2016,05,31,08,39,15.70
2016,05,31,08,40,15.80
2016,05,31,08,41,15.80
2016,05,31,08,42,15.90
2016,05,31,08,43,16.00
2016,05,31,08,44,16.10
2016,05,31,08,45,16.20
2016,05,31,08,46,16.30
2016,05,31,08,47,16.30
2016,05,31,08,48,16.40
2016,05,31,08,49,16.50
2016,05,31,08,50,16.50
2016,05,31,08,51,16.60
2016,05,31,08,52,16.60
2016,05,31,08,53,16.70
2016,05,31,08,54,16.80
2016,05,31,08,55,16.90
2016,05,31,08,56,16.90
2016,05,31,08,57,16.90
2016,05,31,08,58,17.00
2016,05,31,08,59,17.00
2016,05,31,09,00,17.10
2016,05,31,09,01,17.10
2016,05,31,09,02,17.10
2016,05,31,09,03,17.10
2016,05,31,09,04,17.10
2016,05,31,09,05,17.10
2016,05,31,09,06,17.20
2016,05,31,09,07,17.20
2016,05,31,09,08,17.20
2016,05,31,09,09,17.20
2016,05,31,09,10,17.20
2016,05,31,09,11,17.20
2016,05,31,09,12,17.20
2016,05,31,09,13,17.20
2016,05,31,09,14,17.20
2016,05,31,09,15,17.20
2016,05,31,09,16,17.20
2016,05,31,09,17,17.20
2016,05,31,09,18,17.30
2016,05,31,09,19,17.30
2016,05,31,09,20,17.40
2016,05,31,09,21,17.40
2016,05,31,09,22,17.40
2016,05,31,09,23,17.40
2016,05,31,09,24,17.50
2016,05,31,09,25,17.60
2016,05,31,09,26,17.60
2016,05,31,09,27,17.70
2016,05,31,09,28,17.80
2016,05,31,09,29,17.80
2016,05,31,09,30,17.80
2016,05,31,09,31,17.80
2016,05,31,09,32,17.80
2016,05,31,09,33,17.80
2016,05,31,09,34,17.80
2016,05,31,09,35,17.80
2016,05,31,09,36,17.80
2016,05,31,09,37,17.80
2016,05,31,09,38,17.90
2016,05,31,09,39,17.90
2016,05,31,09,40,17.90
2016,05,31,09,41,18.00
2016,05,31,09,42,18.00
2016,05,31,09,43,18.00
2016,05,31,09,44,18.00
2016,05,31,09,45,17.90
2016,05,31,09,46,18.00
2016,05,31,09,47,18.00
2016,05,31,09,48,18.10
2016,05,31,09,49,18.10
2016,05,31,09,50,18.10
2016,05,31,09,51,18.10
2016,05,31,09,52,18.10
2016,05,31,09,53,18.20
2016,05,31,09,54,18.20
2016,05,31,09,55,18.20
2016,05,31,09,56,18.20
2016,05,31,09,57,18.20
2016,05,31,09,58,18.20
2016,05,31,09,59,18.20
2016,05,31,10,00,18.20
2016,05,31,10,01,18.10
2016,05,31,10,02,18.10
2016,05,31,10,03,18.00
2016,05,31,10,04,18.00
2016,05,31,10,05,18.00
2016,05,31,10,06,18.00
2016,05,31,10,07,18.10
2016,05,31,10,08,18.10
2016,05,31,10,09,18.10
2016,05,31,10,10,18.10
2016,05,31,10,11,18.10
2016,05,31,10,12,18.10
2016,05,31,10,13,18.10
2016,05,31,10,14,18.10
2016,05,31,10,15,18.10
2016,05,31,10,16,18.00
2016,05,31,10,17,18.00
2016,05,31,10,18,17.90
2016,05,31,10,19,17.90
2016,05,31,10,20,17.80
2016,05,31,10,21,17.90
2016,05,31,10,22,17.90
2016,05,31,10,23,18.00
2016,05,31,10,24,18.00
2016,05,31,10,25,18.10
2016,05,31,10,26,18.10
2016,05,31,10,27,18.10
2016,05,31,10,28,18.10
2016,05,31,10,29,18.10
2016,05,31,10,30,18.10
2016,05,31,10,31,18.10
2016,05,31,10,32,18.10
2016,05,31,10,33,18.10
2016,05,31,10,34,18.20
2016,05,31,10,35,18.20
2016,05,31,10,36,18.20
2016,05,31,10,37,18.20
2016,05,31,10,38,18.20
2016,05,31,10,39,18.20
2016,05,31,10,40,18.30
2016,05,31,10,41,18.30
2016,05,31,10,42,18.30
2016,05,31,10,43,18.30
2016,05,31,10,44,18.40
2016,05,31,10,45,18.50
2016,05,31,10,46,18.60
2016,05,31,10,47,18.60
2016,05,31,10,48,18.70
2016,05,31,10,49,18.80
2016,05,31,10,50,18.80
2016,05,31,10,51,18.90
2016,05,31,10,52,18.90
2016,05,31,10,53,18.80
2016,05,31,10,54,18.80
2016,05,31,10,55,18.80
2016,05,31,10,56,18.80
2016,05,31,10,57,18.70
2016,05,31,10,58,18.70
2016,05,31,10,59,18.70
2016,05,31,11,00,18.70
2016,05,31,11,01,18.80
2016,05,31,11,02,18.90
2016,05,31,11,03,19.00
2016,05,31,11,04,19.00
2016,05,31,11,05,19.10
2016,05,31,11,06,19.10
2016,05,31,11,07,19.10
2016,05,31,11,08,19.00
2016,05,31,11,09,19.00
2016,05,31,11,10,18.90
2016,05,31,11,11,18.80
2016,05,31,11,12,18.80
2016,05,31,11,13,18.90
2016,05,31,11,14,18.90
2016,05,31,11,15,18.90
2016,05,31,11,16,18.90
2016,05,31,11,17,18.80
2016,05,31,11,18,18.60
2016,05,31,11,19,18.50
2016,05,31,11,20,18.40
2016,05,31,11,21,18.30
2016,05,31,11,22,18.30
2016,05,31,11,23,18.40
2016,05,31,11,24,18.50
2016,05,31,11,25,18.50
2016,05,31,11,26,18.70
2016,05,31,11,27,18.70
2016,05,31,11,28,18.70
2016,05,31,11,29,18.80
2016,05,31,11,30,18.90
2016,05,31,11,31,19.00
2016,05,31,11,32,19.10
2016,05,31,11,33,19.20
2016,05,31,11,34,19.30
2016,05,31,11,35,19.40
2016,05,31,11,36,19.40
2016,05,31,11,37,19.40
2016,05,31,11,38,19.50
2016,05,31,11,39,19.50
2016,05,31,11,40,19.50
2016,05,31,11,41,19.40
2016,05,31,11,42,19.40
2016,05,31,11,43,19.40
2016,05,31,11,44,19.30
2016,05,31,11,45,19.30
2016,05,31,11,46,19.30
2016,05,31,11,47,19.20
2016,05,31,11,48,19.20
2016,05,31,11,49,19.20
2016,05,31,11,50,19.10
2016,05,31,11,51,19.10
2016,05,31,11,52,19.00
2016,05,31,11,53,18.90
2016,05,31,11,54,18.80
2016,05,31,11,55,18.80
2016,05,31,11,56,18.80
2016,05,31,11,57,18.70
2016,05,31,11,58,18.70
2016,05,31,11,59,18.60
2016,05,31,12,00,18.70
2016,05,31,12,01,18.70
2016,05,31,12,02,18.80
2016,05,31,12,03,18.80
2016,05,31,12,04,18.90
2016,05,31,12,05,18.90
2016,05,31,12,06,19.00
2016,05,31,12,07,19.10
2016,05,31,12,08,19.20
2016,05,31,12,09,19.20
2016,05,31,12,10,19.30
2016,05,31,12,11,19.30
2016,05,31,12,12,19.30
2016,05,31,12,13,19.30
2016,05,31,12,14,19.30
2016,05,31,12,15,19.30
2016,05,31,12,16,19.30
2016,05,31,12,17,19.30
2016,05,31,12,18,19.30
2016,05,31,12,19,19.30
2016,05,31,12,20,19.30
2016,05,31,12,21,19.40
2016,05,31,12,22,19.50
2016,05,31,12,23,19.60
2016,05,31,12,24,19.70
2016,05,31,12,25,19.70
2016,05,31,12,26,19.80
2016,05,31,12,27,19.80
2016,05,31,12,28,19.80
2016,05,31,12,29,19.70
2016,05,31,12,30,19.60
2016,05,31,12,31,19.60
2016,05,31,12,32,19.60
2016,05,31,12,33,19.50
2016,05,31,12,34,19.40
2016,05,31,12,35,19.40
2016,05,31,12,36,19.50
2016,05,31,12,37,19.50
2016,05,31,12,38,19.50
2016,05,31,12,39,19.50
2016,05,31,12,40,19.50
2016,05,31,12,41,19.50
2016,05,31,12,42,19.50
2016,05,31,12,43,19.40
2016,05,31,12,44,19.40
2016,05,31,12,45,19.40
2016,05,31,12,46,19.40
2016,05,31,12,47,19.30
2016,05,31,12,48,19.30
2016,05,31,12,49,19.30
2016,05,31,12,50,19.30
2016,05,31,12,51,19.40
2016,05,31,12,52,19.40
2016,05,31,12,53,19.30
2016,05,31,12,54,19.30
2016,05,31,12,55,19.30
2016,05,31,12,56,19.30
2016,05,31,12,57,19.30
2016,05,31,12,58,19.30
2016,05,31,12,59,19.40
2016,05,31,13,00,19.40
2016,05,31,13,01,19.50
2016,05,31,13,02,19.60
2016,05,31,13,03,19.70
2016,05,31,13,04,19.70
2016,05,31,13,05,19.80
2016,05,31,13,06,19.90
2016,05,31,13,07,19.90
2016,05,31,13,08,20.00
2016,05,31,13,09,20.10
2016,05,31,13,10,20.00
2016,05,31,13,11,20.10
2016,05,31,13,12,20.10
2016,05,31,13,13,20.10
2016,05,31,13,14,20.20
2016,05,31,13,15,20.20
2016,05,31,13,16,20.30
2016,05,31,13,17,20.20
2016,05,31,13,18,20.10
2016,05,31,13,19,20.10
2016,05,31,13,20,20.10
2016,05,31,13,21,20.20
2016,05,31,13,22,20.20
2016,05,31,13,23,20.20
2016,05,31,13,24,20.30
2016,05,31,13,25,20.30
2016,05,31,13,26,20.30
2016,05,31,13,27,20.30
2016,05,31,13,28,20.30
2016,05,31,13,29,20.30
2016,05,31,13,30,20.10
2016,05,31,13,31,19.90
2016,05,31,13,32,19.80
2016,05,31,13,33,19.70
2016,05,31,13,34,19.60
2016,05,31,13,35,19.50
2016,05,31,13,36,19.50
2016,05,31,13,37,19.50
2016,05,31,13,38,19.50
2016,05,31,13,39,19.60
2016,05,31,13,40,19.60
2016,05,31,13,41,19.60
2016,05,31,13,42,19.60
2016,05,31,13,43,19.60
2016,05,31,13,44,19.70
2016,05,31,13,45,19.70
2016,05,31,13,46,19.80
2016,05,31,13,47,19.80
2016,05,31,13,48,19.80
2016,05,31,13,49,19.80
2016,05,31,13,50,19.90
2016,05,31,13,51,19.90
2016,05,31,13,52,19.90
2016,05,31,13,53,19.90
2016,05,31,13,54,20.00
2016,05,31,13,55,20.00
2016,05,31,13,56,20.00
2016,05,31,13,57,20.00
2016,05,31,13,58,20.00
2016,05,31,13,59,20.00
2016,05,31,14,00,20.10
2016,05,31,14,01,20.10
2016,05,31,14,02,20.10
2016,05,31,14,03,20.10
2016,05,31,14,04,20.00
2016,05,31,14,05,19.90
2016,05,31,14,06,19.80
2016,05,31,14,07,19.80
2016,05,31,14,08,19.80
2016,05,31,14,09,19.80
2016,05,31,14,10,19.90
2016,05,31,14,11,19.80
2016,05,31,14,12,19.80
2016,05,31,14,13,19.90
2016,05,31,14,14,19.90
2016,05,31,14,15,19.90
2016,05,31,14,16,19.90
2016,05,31,14,17,20.00
2016,05,31,14,18,20.00
2016,05,31,14,19,20.00
2016,05,31,14,20,20.00
2016,05,31,14,21,20.00
2016,05,31,14,22,20.00
2016,05,31,14,23,20.00
2016,05,31,14,24,20.00
2016,05,31,14,25,20.10
2016,05,31,14,26,20.00
2016,05,31,14,27,20.00
2016,05,31,14,28,20.00
2016,05,31,14,29,20.10
2016,05,31,14,30,20.10
2016,05,31,14,31,20.10
2016,05,31,14,32,20.10
2016,05,31,14,33,20.10
2016,05,31,14,34,20.10
2016,05,31,14,35,20.20
2016,05,31,14,36,20.10
2016,05,31,14,37,20.10
2016,05,31,14,38,20.10
2016,05,31,14,39,20.00
2016,05,31,14,40,20.00
2016,05,31,14,41,20.00
2016,05,31,14,42,19.90
2016,05,31,14,43,19.90
2016,05,31,14,44,19.90
2016,05,31,14,45,19.90
2016,05,31,14,46,19.90
2016,05,31,14,47,19.90
2016,05,31,14,48,19.90
2016,05,31,14,49,20.00
2016,05,31,14,50,20.00
2016,05,31,14,51,20.10
2016,05,31,14,52,20.10
2016,05,31,14,53,20.20
2016,05,31,14,54,20.10
2016,05,31,14,55,20.00
2016,05,31,14,56,19.90
2016,05,31,14,57,19.90
2016,05,31,14,58,19.80
2016,05,31,14,59,19.80
2016,05,31,15,00,19.70
2016,05,31,15,01,19.70
2016,05,31,15,02,19.60
2016,05,31,15,03,19.60
2016,05,31,15,04,19.50
2016,05,31,15,05,19.50
2016,05,31,15,06,19.40
2016,05,31,15,07,19.50
2016,05,31,15,08,19.60
2016,05,31,15,09,19.60
2016,05,31,15,10,19.70
2016,05,31,15,11,19.80
2016,05,31,15,12,19.90
2016,05,31,15,13,19.90
2016,05,31,15,14,20.00
2016,05,31,15,15,19.90
2016,05,31,15,16,20.00
2016,05,31,15,17,20.10
2016,05,31,15,18,20.10
2016,05,31,15,19,20.00
2016,05,31,15,20,20.00
2016,05,31,15,21,20.00
2016,05,31,15,22,20.00
2016,05,31,15,23,20.00
2016,05,31,15,24,20.10
2016,05,31,15,25,20.10
2016,05,31,15,26,20.20
2016,05,31,15,27,20.30
2016,05,31,15,28,20.40
2016,05,31,15,29,20.40
2016,05,31,15,30,20.50
2016,05,31,15,31,20.50
2016,05,31,15,32,20.40
2016,05,31,15,33,20.40
2016,05,31,15,34,20.30
2016,05,31,15,35,20.20
2016,05,31,15,36,20.10
2016,05,31,15,37,20.00
2016,05,31,15,38,20.00
2016,05,31,15,39,20.10
2016,05,31,15,40,20.10
2016,05,31,15,41,20.10
2016,05,31,15,42,20.10
2016,05,31,15,43,20.20
2016,05,31,15,44,20.30
2016,05,31,15,45,20.40
2016,05,31,15,46,20.40
2016,05,31,15,47,20.40
2016,05,31,15,48,20.40
2016,05,31,15,49,20.40
2016,05,31,15,50,20.40
2016,05,31,15,51,20.40
2016,05,31,15,52,20.40
2016,05,31,15,53,20.40
2016,05,31,15,54,20.40
2016,05,31,15,55,20.50
2016,05,31,15,56,20.50
2016,05,31,15,57,20.40
2016,05,31,15,58,20.50
2016,05,31,15,59,20.50
2016,05,31,16,00,20.40
2016,05,31,16,01,20.30
2016,05,31,16,02,20.30
2016,05,31,16,03,20.30
2016,05,31,16,04,20.30
2016,05,31,16,05,20.20
2016,05,31,16,06,20.10
2016,05,31,16,07,20.10
2016,05,31,16,08,20.10
2016,05,31,16,09,20.10
2016,05,31,16,10,20.10
2016,05,31,16,11,20.00
2016,05,31,16,12,19.90
2016,05,31,16,13,19.90
2016,05,31,16,14,19.90
2016,05,31,16,15,19.90
2016,05,31,16,16,19.90
2016,05,31,16,17,19.90
2016,05,31,16,18,19.90
2016,05,31,16,19,19.90
2016,05,31,16,20,19.80
2016,05,31,16,21,19.70
2016,05,31,16,22,19.70
2016,05,31,16,23,19.70
2016,05,31,16,24,19.70
2016,05,31,16,25,19.70
2016,05,31,16,26,19.70
2016,05,31,16,27,19.70
2016,05,31,16,28,19.80
2016,05,31,16,29,19.80
2016,05,31,16,30,19.90
2016,05,31,16,31,19.90
2016,05,31,16,32,19.90
2016,05,31,16,33,19.90
2016,05,31,16,34,19.90
2016,05,31,16,35,20.00
2016,05,31,16,36,20.00
2016,05,31,16,37,20.10
2016,05,31,16,38,20.20
2016,05,31,16,39,20.20
2016,05,31,16,40,20.30
2016,05,31,16,41,20.30
2016,05,31,16,42,20.30
2016,05,31,16,43,20.30
2016,05,31,16,44,20.20
2016,05,31,16,45,20.20
2016,05,31,16,46,20.10
2016,05,31,16,47,20.00
2016,05,31,16,48,20.00
2016,05,31,16,49,19.90
2016,05,31,16,50,19.90
2016,05,31,16,51,19.90
2016,05,31,16,52,19.90
2016,05,31,16,53,19.90
2016,05,31,16,54,19.90
2016,05,31,16,55,19.90
2016,05,31,16,56,19.90
2016,05,31,16,57,19.90
2016,05,31,16,58,19.80
2016,05,31,16,59,19.80
2016,05,31,17,00,19.80
2016,05,31,17,01,19.70
2016,05,31,17,02,19.70
2016,05,31,17,03,19.70
2016,05,31,17,04,19.70
2016,05,31,17,05,19.70
2016,05,31,17,06,19.70
2016,05,31,17,07,19.70
2016,05,31,17,08,19.70
2016,05,31,17,09,19.60
2016,05,31,17,10,19.70
2016,05,31,17,11,19.70
2016,05,31,17,12,19.60
2016,05,31,17,13,19.60
2016,05,31,17,14,19.50
2016,05,31,17,15,19.40
2016,05,31,17,16,19.40
2016,05,31,17,17,19.30
2016,05,31,17,18,19.30
2016,05,31,17,19,19.30
2016,05,31,17,20,19.30
2016,05,31,17,21,19.30
2016,05,31,17,22,19.30
2016,05,31,17,23,19.30
2016,05,31,17,24,19.30
2016,05,31,17,25,19.30